[Date Prev][Date Next][Thread Prev][Thread Next] - [Date Index][Thread Index][Author Index]

2 Line ISS Keps 11-20



ISS
1 25544U 98067A   04324.53357639  .00015237  00000-0  12726-3 0  1782
2 25544  51.6373 252.9725 0004448  23.4877 322.9987 15.70261284342713
----
Via the sarex mailing list at AMSAT.ORG courtesy of AMSAT-NA.
To unsubscribe, send "unsubscribe sarex" to Majordomo@amsat.org



AMSAT Top AMSAT Home